This is the latest recevied weather packets stored in our database for station/object K3HM. If no packets are shown the sender has not sent any weather packets the latest 10 day(s).
| Time | Temp. | Humidity | Pressure | Rain* | Wind** | Luminosity | Snow |
|---|---|---|---|---|---|---|---|
| 1777823396 | 7.78° C | 51% | 1017.1 hPa | 0 mm | - | 234 W/m² | - |
| 1777823094 | 7.78° C | 52% | 1017 hPa | 0 mm | - | 708 W/m² | - |
| 1777822792 | 8.33° C | 52% | 1017.2 hPa | 0 mm | - | 679 W/m² | - |
| 1777822489 | 7.78° C | 51% | 1017.1 hPa | 0 mm | - | 689 W/m² | - |
| 1777822187 | 7.22° C | 51% | 1017.1 hPa | 0 mm | - | 670 W/m² | - |
| 1777821884 | 7.22° C | 52% | 1017.1 hPa | 0 mm | - | 676 W/m² | - |
| 1777821581 | 7.78° C | 52% | 1017.1 hPa | 0 mm | - | 668 W/m² | - |
| 1777821279 | 6.67° C | 54% | 1017.1 hPa | 0 mm | - | 650 W/m² | - |
| 1777820976 | 7.22° C | 51% | 1017.2 hPa | 0 mm | - | 647 W/m² | - |
| 1777820673 | 6.67° C | 51% | 1017.1 hPa | 0 mm | - | 635 W/m² | - |
| 1777820368 | 6.67° C | 53% | 1017.1 hPa | 0 mm | - | 638 W/m² | - |
| 1777820066 | 6.67° C | 53% | 1017.1 hPa | 0 mm | - | 83 W/m² | - |
| 1777819763 | 7.22° C | 52% | 1017.1 hPa | 0 mm | - | 677 W/m² | - |
| 1777819461 | 6.67° C | 51% | 1017.1 hPa | 0 mm | - | 464 W/m² | - |
| 1777819159 | 6.67° C | 55% | 1017.2 hPa | 0 mm | - | 634 W/m² | - |
| 1777818855 | 6.11° C | 53% | 1017.2 hPa | 0 mm | - | 624 W/m² | - |
| 1777818551 | 5° C | 59% | 1017.1 hPa | 0 mm | - | 624 W/m² | - |
| 1777818249 | 5° C | 60% | 1017.1 hPa | 0 mm | - | 573 W/m² | - |
| 1777817945 | 5.56° C | 61% | 1017.1 hPa | 0 mm | - | 175 W/m² | - |
| 1777817643 | 6.11° C | 60% | 1016.9 hPa | 0 mm | - | 651 W/m² | - |
| 1777817339 | 6.11° C | 60% | 1017.1 hPa | 0 mm | - | 155 W/m² | - |
| 1777817036 | 6.11° C | 61% | 1017.2 hPa | 0 mm | - | 574 W/m² | - |
| 1777816732 | 5° C | 61% | 1017 hPa | 0 mm | - | 577 W/m² | - |
| 1777816429 | 5.56° C | 60% | 1017.2 hPa | 0 mm | - | 118 W/m² | - |
| 1777816127 | 5.56° C | 62% | 1017 hPa | 0 mm | - | 536 W/m² | - |
* Rain latest hour (hover to see other rain measurements)
** Current wind speed in m/s (hover to see current wind gust speed)